[[{"header":{"parameterUnit":"m.s-1","parameterCategory":2,"la1":30.2991,"la2":30.254,"lo1":-89.0895,"lo2":-89.0444,"dy":0.0017,"dx":0.0017,"nx":28,"ny":28,"refTime":"2026-02-27T03:00:00:Z","depth":"0","parameterNumber":2,"parameterNumberName":"U-component_of_CURRENTS"},"data":[0,0,0,0,0,0,0,0,0,0,0,0,0,0,0,0,0,0,0,0,0,0,0,0,0,0,0,0,0,0,0,0,0,0,0,0,0,0,0,0,0,0,0,0,0,0,0,0,0,0,0,0,0,0,0,0,0,0,0.2,0.2001,0,0.2016,0.2016,0.2016,0.1997,0.1996,0.1996,0.1996,0.1964,0.1963,0.1963,0,0,0,0,0,0,0,0,0,0,0,0,0,0.1927,0.1929,0.2,0.2001,0.2001,0.2016,0.2016,0.2016,0.1997,0.1996,0.1996,0.1996,0.1964,0.1963,0.1963,0,0,0,0,0,0,0,0,0,0,0,0,0,0.1949,0.1929,0.2,0.1997,0.1997,0.2016,0.2016,0.2015,0.1997,0.1996,0.1996,0.1995,0.1964,0.1963,0.1962,0.1967,0,0,0.196,0.196,0,0,0,0,0,0,0,0,0.1948,0.1951,0.1997,0.1997,0.1997,0.2007,0.1979,0.1998,0.1997,0.1992,0.1996,0.1995,0.1977,0.1975,0.1974,0.1965,0.1964,0.196,0.1959,0.1959,0.1959,0,0,0,0,0,0,0,0.1946,0.195,0.2002,0.1997,0.1998,0.1986,0.1988,0.1982,0.1983,0.1993,0.1992,0.2001,0.1976,0.1975,0.1973,0.1964,0.196,0.1959,0.1959,0.1958,0.2035,0.2037,0,0,0,0,0,0,0.1955,0.1949,0.2002,0.2003,0.1975,0.1988,0.199,0.2001,0.1984,0.1983,0.2001,0.2,0.1976,0.1974,0.1972,0.2045,0.1959,0.1958,0.1958,0.2032,0.2035,0.2038,0,0,0,0,0,0,0.1953,0.196,0.2001,0.1979,0.1984,0.199,0.2002,0.2002,0.2002,0.1992,0.1989,0.2002,0.1976,0.1973,0.1974,0.2041,0.1958,0.1957,0.2029,0.2033,0.2037,0.2147,0,0,0,0,0,0,0.1951,0.1959,0.1968,0.198,0.1986,0.2005,0.2003,0.2003,0.201,0.2008,0.1992,0.1988,0.1975,0.1975,0.1973,0.2038,0.1956,0.2026,0.2031,0.2035,0.214,0.2154,0.2166,0,0,0,0,0,0.1948,0.1957,0.1968,0.1975,0.1999,0.2005,0.2006,0.2006,0.201,0.2005,0.2006,0.1989,0.2005,0.1976,0.1973,0.2039,0.2024,0.2029,0.2035,0.2134,0.2151,0.2166,0,0,0,0,0,0,0.1928,0.1957,0.1969,0.1987,0.1996,0.2003,0.2002,0.201,0.2008,0.2006,0.1999,0.1995,0.2034,0.2013,0.198,0.2078,0.2021,0.2026,0.2098,0.2114,0.2126,0.224,0.1956,0,0,0,0,0,0.1932,0.1943,0.1969,0.1979,0.1986,0.1998,0.2002,0.2004,0.2008,0.2006,0.2002,0.2015,0.2056,0.2061,0.2071,0.2102,0.2166,0.2151,0.2164,0.2175,0.2268,0.2424,0.2462,0.2057,0.2056,0.2056,0,0,0.1924,0.1944,0.195,0.1976,0.1982,0.2023,0.1997,0.2001,0.2052,0.2003,0.2048,0.2049,0.2074,0.2125,0.2142,0.2113,0.2308,0.2183,0.2192,0.2281,0.2435,0.2475,0.2511,0.206,0.206,0.2059,0,0,0.1929,0.1936,0.1957,0.1973,0.1994,0.2019,0.2025,0.2037,0.2053,0.2084,0.21,0.2168,0.215,0.2242,0.2277,0.2374,0.2372,0.2331,0.249,0.2638,0.2675,0.2708,0.2776,0.2815,0.2337,0.2338,0.2338,0,0.1921,0.1987,0.196,0.1995,0.2046,0.2029,0.2096,0.2106,0.2119,0.2177,0.2106,0.2244,0.2251,0.2429,0.247,0.2419,0.2452,0.2421,0.2662,0.2696,0.2728,0.2791,0.2832,0.2344,0.2343,0.2342,0.2342,0,0.1966,0.2024,0.2035,0.2104,0.2125,0.2177,0.2206,0.2229,0.2246,0.2293,0.2417,0.2437,0.2545,0.2546,0.2541,0.2778,0.2707,0.2658,0.263,0.2777,0.283,0.2872,0.2352,0.235,0.2348,0.2347,0,0,0.1985,0.2064,0.2075,0.2145,0.2214,0.2235,0.2322,0.2441,0.2528,0.2543,0.2698,0.2808,0.2826,0.2877,0.2877,0.3017,0.3247,0.2939,0.2943,0.3022,0.3516,0.3391,0.3422,0.3214,0.3223,0.323,0.3438,0,0.207,0.2173,0.22,0.2329,0.2415,0.2441,0.2528,0.2605,0.2661,0.2772,0.2872,0.2981,0.2943,0.2988,0.3141,0.3215,0.3371,0.3193,0.3353,0.3359,0.3246,0.3474,0.3393,0.3568,0.3478,0.3485,0.349,0,0.2172,0.2235,0.2372,0.2505,0.2538,0.2596,0.2758,0.2824,0.2973,0.3012,0.3159,0.3189,0.3423,0.3331,0.3627,0.3492,0.3566,0.3612,0.3619,0.3524,0.3317,0.342,0.3646,0.361,0.3553,0.3548,0.3543,0,0.2265,0.2387,0.2513,0.2554,0.2666,0.2732,0.2795,0.2919,0.2978,0.3174,0.3221,0.3468,0.3543,0.3733,0.3802,0.3738,0.4074,0.3982,0.3956,0.3941,0.3931,0.3901,0.4179,0.4275,0.4274,0.4274,0.4273,0,0.2418,0.2511,0.2553,0.2618,0.2733,0.2792,0.292,0.2998,0.3124,0.3215,0.3343,0.344,0.3649,0.3801,0.3907,0.4049,0.4165,0.4089,0.4047,0.395,0.3921,0.3929,0.3881,0.4281,0.4279,0.4278,0.4277,0,0.2512,0.2564,0.2674,0.2763,0.2782,0.2844,0.2911,0.2985,0.3104,0.3221,0.3279,0.3463,0.3661,0.382,0.4102,0.4132,0.4224,0.4324,0.4149,0.4087,0.4003,0.3961,0.405,0.3922,0.4386,0.4385,0.4384,0,0.2578,0.265,0.2707,0.2719,0.2752,0.2823,0.2857,0.2965,0.3024,0.3211,0.3264,0.3475,0.359,0.3913,0.4078,0.4283,0.4189,0.4291,0.4213,0.4094,0.4019,0.3814,0.3683,0.4214,0.4212,0.421,0.4209,0,0.2663,0.2662,0.27,0.2719,0.2741,0.2766,0.2826,0.2857,0.2987,0.3073,0.3198,0.3312,0.3599,0.3785,0.4023,0.4136,0.4118,0.4256,0.425,0.4059,0.3754,0.3571,0.3904,0.4193,0.4195,0.4196,0.4197,0.4197,0.266,0.2668,0.268,0.2692,0.2694,0.2689,0.2688,0.2748,0.2807,0.2912,0.3077,0.3213,0.3558,0.3882,0.3953,0.4074,0.3985,0.4079,0.4079,0.3912,0.3696,0.3949,0.4093,0.4094,0.4095,0.4096,0.4096,0,0.264,0.2639,0.2647,0.2629,0.2585,0.2619,0.2637,0.2623,0.264,0.2797,0.2892,0.3212,0.3466,0.3728,0.4011,0.3971,0.3774,0.3916,0.37,0.3607,0.3997,0.3897,0.3864,0.3864,0.3864,0.3864,0.3864,0.3864,0.2627,0.2606,0.2603,0.2515,0.2488,0.242,0.2405,0.2401,0.2487,0.2599,0.2751,0.293,0.3391,0.3897,0.4037,0.3953,0.3695,0.3556,0.3486,0.3872,0.3887,0.3902,0.3804,0.3753,0.3752,0.2969,0.2964,0.296]},{"header":{"parameterUnit":"m.s-1","parameterCategory":2,"la1":30.2991,"la2":30.254,"lo1":-89.0895,"lo2":-89.0444,"dy":0.0017,"dx":0.0017,"nx":28,"ny":28,"refTime":"2026-02-27T03:00:00:Z","depth":"0","parameterNumber":3,"parameterNumberName":"V-component_of_CURRENTS"},"data":[0,0,0,0,0,0,0,0,0,0,0,0,0,0,0,0,0,0,0,0,0,0,0,0,0,0,0,0,0,0,0,0,0,0,0,0,0,0,0,0,0,0,0,0,0,0,0,0,0,0,0,0,0,0,0,0,0,0,-0.0227,-0.0228,0,-0.031,-0.0311,-0.0312,-0.0371,-0.0372,-0.0372,-0.0373,-0.0457,-0.0459,-0.0461,0,0,0,0,0,0,0,0,0,0,0,0,0,-0.0141,-0.0142,-0.0227,-0.0228,-0.0229,-0.031,-0.0311,-0.0312,-0.0371,-0.0372,-0.0372,-0.0373,-0.0457,-0.0459,-0.0461,0,0,0,0,0,0,0,0,0,0,0,0,0,-0.0197,-0.0142,-0.0227,-0.0268,-0.0273,-0.031,-0.0311,-0.0313,-0.0371,-0.0372,-0.0373,-0.0373,-0.0456,-0.0458,-0.0461,-0.0465,0,0,-0.047,-0.0471,0,0,0,0,0,0,0,0,-0.0194,-0.02,-0.0261,-0.0265,-0.027,-0.0331,-0.0312,-0.0364,-0.0371,-0.0334,-0.0373,-0.0373,-0.0414,-0.042,-0.0435,-0.0469,-0.0473,-0.047,-0.0472,-0.0473,-0.0474,0,0,0,0,0,0,0,-0.019,-0.0197,-0.0261,-0.0262,-0.0268,-0.0289,-0.0298,-0.0322,-0.037,-0.0338,-0.0342,-0.035,-0.0417,-0.0432,-0.0438,-0.0474,-0.047,-0.0472,-0.0474,-0.0475,-0.0437,-0.0434,0,0,0,0,0,0,-0.0177,-0.0193,-0.0258,-0.0263,-0.0232,-0.029,-0.03,-0.0311,-0.037,-0.0379,-0.0349,-0.0352,-0.0427,-0.0434,-0.0441,-0.0344,-0.0473,-0.0475,-0.0477,-0.0439,-0.0436,-0.0433,0,0,0,0,0,0,-0.0175,-0.0182,-0.0255,-0.0229,-0.024,-0.0291,-0.0303,-0.0312,-0.0326,-0.0379,-0.0389,-0.0353,-0.0428,-0.0437,-0.0446,-0.0352,-0.0477,-0.0479,-0.0442,-0.0438,-0.0434,-0.0219,0,0,0,0,0,0,-0.0172,-0.0181,-0.0181,-0.0229,-0.0241,-0.0263,-0.0303,-0.0313,-0.033,-0.0335,-0.0385,-0.0394,-0.0429,-0.0441,-0.0448,-0.0358,-0.0481,-0.0446,-0.044,-0.0436,-0.0229,-0.0208,-0.019,0,0,0,0,0,-0.0168,-0.0165,-0.0181,-0.0189,-0.0242,-0.0262,-0.027,-0.0309,-0.0329,-0.0326,-0.0355,-0.0393,-0.0413,-0.0442,-0.0451,-0.0359,-0.0448,-0.0442,-0.0436,-0.0238,-0.0212,-0.019,0,0,0,0,0,0,-0.0127,-0.0172,-0.019,-0.0201,-0.0223,-0.0272,-0.0275,-0.03,-0.0323,-0.0327,-0.0377,-0.0387,-0.035,-0.0399,-0.043,-0.0335,-0.0429,-0.0424,-0.0275,-0.0251,-0.0232,-0.0121,-0.0484,0,0,0,0,0,-0.0117,-0.0128,-0.0168,-0.0174,-0.0183,-0.0226,-0.024,-0.0264,-0.0292,-0.0304,-0.0333,-0.0351,-0.0331,-0.0331,-0.0344,-0.0309,-0.0321,-0.0253,-0.0232,-0.0215,-0.0131,-0.0069,-0.0033,-0.0413,-0.0413,-0.0413,0,0,-0.0103,-0.0128,-0.0134,-0.0165,-0.0188,-0.0153,-0.0236,-0.0248,-0.0192,-0.0308,-0.0253,-0.0292,-0.0311,-0.0255,-0.0241,-0.0284,-0.0131,-0.0207,-0.0192,-0.0116,-0.0058,-0.0021,0.0013,-0.0409,-0.041,-0.041,0,0,-0.0047,-0.0099,-0.0069,-0.0076,-0.0099,-0.0116,-0.0111,-0.0149,-0.0142,-0.0116,-0.0151,-0.0119,-0.015,-0.0097,-0.0081,0.0039,-0.0031,0.0006,0.0208,0.0267,0.03,0.033,0.0295,0.032,0.0022,0.0022,0.0023,0,-0.0019,0.003,-0.0062,-0.0018,0.002,-0.0081,0.0005,-0.0009,-0.0037,0.0021,-0.0072,0.0008,-0.0037,0.013,0.0169,0.01,0.0072,0.012,0.0299,0.0328,0.0355,0.0313,0.0338,0.0033,0.0032,0.0031,0.003,0,0.0087,0.0132,0.0149,0.0191,0.0198,0.0247,0.0228,0.0247,0.0228,0.0242,0.0354,0.0298,0.0368,0.0349,0.0296,0.0487,0.038,0.0313,0.0251,0.0408,0.035,0.0372,0.0049,0.0045,0.0042,0.0039,0,0,0.0197,0.0227,0.0248,0.0328,0.0334,0.0364,0.0451,0.0549,0.0651,0.0616,0.0782,0.081,0.077,0.079,0.0727,0.078,0.0894,0.0638,0.0636,0.0627,0.0958,0.0835,0.0844,0.0846,0.0853,0.0858,0.0818,0,0.0353,0.0495,0.047,0.0646,0.0744,0.0702,0.0806,0.0859,0.0874,0.0977,0.0983,0.1068,0.0939,0.0963,0.1016,0.0934,0.0974,0.0908,0.0791,0.0788,0.0681,0.0877,0.0781,0.0737,0.0839,0.0842,0.0845,0,0.0542,0.0615,0.0802,0.0939,0.0976,0.1047,0.1216,0.1284,0.1378,0.1393,0.1478,0.1424,0.1534,0.1355,0.1377,0.1328,0.1195,0.1102,0.1096,0.0951,0.0713,0.0608,0.0772,0.0532,0.0878,0.0875,0.0873,0,0.0751,0.0888,0.1056,0.1098,0.1196,0.1292,0.1346,0.1439,0.1517,0.165,0.1698,0.1795,0.1808,0.1744,0.1526,0.1463,0.1487,0.1357,0.1128,0.111,0.1003,0.0967,0.0962,0.1404,0.1404,0.1404,0.1404,0,0.099,0.1133,0.116,0.1257,0.1439,0.1466,0.1651,0.1706,0.1816,0.1932,0.1915,0.2007,0.1906,0.1858,0.1665,0.1478,0.1593,0.1245,0.115,0.1059,0.1031,0.079,0.0644,0.1402,0.1403,0.1403,0.1403,0,0.1193,0.1234,0.14,0.1505,0.1536,0.1652,0.1744,0.1861,0.1957,0.21,0.2143,0.2194,0.2144,0.1976,0.1846,0.163,0.1303,0.135,0.1205,0.1098,0.066,0.0528,0.0477,0.0328,0.1138,0.1135,0.1133,0,0.1316,0.1419,0.151,0.1558,0.1596,0.173,0.1804,0.1913,0.2015,0.2196,0.2277,0.2298,0.231,0.2077,0.1734,0.1428,0.1204,0.1106,0.1011,0.0712,0.0495,0.0425,0.0298,0.0901,0.0897,0.0894,0.0892,0,0.1492,0.149,0.157,0.1656,0.1733,0.1831,0.1953,0.2053,0.2195,0.2325,0.2488,0.2533,0.2297,0.1996,0.1569,0.1326,0.0905,0.1029,0.0807,0.0434,0.0281,0.0061,0.077,0.0864,0.0867,0.0869,0.087,0.0872,0.1553,0.1603,0.1655,0.1743,0.1814,0.1931,0.2039,0.217,0.2352,0.2559,0.2604,0.2694,0.225,0.1679,0.1305,0.0594,0.0655,0.0376,0.0268,0.0248,0.0065,0.0684,0.0616,0.0617,0.0618,0.0619,0.062,0,0.1618,0.1659,0.1734,0.1836,0.1913,0.1952,0.213,0.2249,0.2452,0.2628,0.2763,0.2601,0.197,0.1376,0.0428,-0.0066,-0.0233,-0.0303,-0.0409,-0.0485,0.0141,0.0089,-0.0199,-0.0199,-0.0199,-0.0198,-0.0198,-0.0198,0.165,0.1725,0.1764,0.1903,0.1969,0.2114,0.2222,0.2393,0.2556,0.2751,0.282,0.2877,0.2444,0.0802,-0.0361,-0.0652,-0.1001,-0.1073,-0.1199,-0.0793,-0.0737,-0.0684,-0.0762,-0.1224,-0.1225,-0.1798,-0.1804,-0.1808]}],[{"header":{"parameterUnit":"m.s-1","parameterCategory":2,"la1":30.2991,"la2":30.254,"lo1":-89.0895,"lo2":-89.0444,"dy":0.0017,"dx":0.0017,"nx":28,"ny":28,"refTime":"2026-02-27T03:00:00:Z","depth":"2","parameterNumber":2,"parameterNumberName":"U-component_of_CURRENTS"},"data":[0,0,0,0,0,0,0,0,0,0,0,0,0,0,0,0,0,0,0,0,0,0,0,0,0,0,0,0,0,0,0,0,0,0,0,0,0,0,0,0,0,0,0,0,0,0,0,0,0,0,0,0,0,0,0,0,0,0,0.1657,0.1658,0,0.1733,0.1734,0.1735,0.1749,0.1748,0.1748,0.1747,0.1779,0.178,0.1782,0,0,0,0,0,0,0,0,0,0,0,0,0,0.1598,0.1599,0.1657,0.1658,0.1659,0.1733,0.1734,0.1735,0.1749,0.1748,0.1747,0.1746,0.1778,0.178,0.1782,0,0,0,0,0,0,0,0,0,0,0,0,0,0.1645,0.1599,0.1657,0.1674,0.1676,0.1733,0.1734,0.1736,0.1749,0.1748,0.1747,0.1746,0.1778,0.178,0.1782,0.182,0,0,0.179,0.1791,0,0,0,0,0,0,0,0,0.1643,0.1648,0.167,0.1672,0.1675,0.1729,0.1725,0.1761,0.175,0.1723,0.1747,0.1745,0.1758,0.1762,0.1782,0.1822,0.1823,0.179,0.1791,0.1792,0.1793,0,0,0,0,0,0,0,0.1639,0.1645,0.1689,0.1671,0.1674,0.1702,0.1707,0.1733,0.1747,0.1726,0.1726,0.1732,0.1759,0.178,0.1782,0.1824,0.179,0.1792,0.1793,0.1794,0.1892,0.1893,0,0,0,0,0,0,0.1624,0.1642,0.1687,0.1691,0.1654,0.1703,0.1709,0.1714,0.1747,0.1751,0.1733,0.1733,0.1776,0.178,0.1783,0.1828,0.1792,0.1794,0.1796,0.189,0.1892,0.1893,0,0,0,0,0,0,0.1623,0.1627,0.1684,0.1667,0.1676,0.1705,0.1711,0.1716,0.1747,0.1753,0.1756,0.1759,0.1775,0.178,0.1817,0.1829,0.1796,0.1798,0.1889,0.1891,0.1892,0.1918,0,0,0,0,0,0,0.1621,0.1626,0.1633,0.1666,0.1676,0.1735,0.1712,0.1718,0.1751,0.1752,0.1777,0.1778,0.1775,0.1814,0.1819,0.1831,0.18,0.1887,0.189,0.1892,0.1915,0.192,0.1924,0,0,0,0,0,0.1618,0.164,0.1632,0.1638,0.1681,0.1737,0.1747,0.1764,0.1754,0.1785,0.1791,0.1778,0.1831,0.1817,0.1823,0.1836,0.1886,0.1889,0.1892,0.1913,0.1919,0.1924,0,0,0,0,0,0,0.1614,0.1644,0.1636,0.1663,0.17,0.1739,0.1771,0.1777,0.181,0.1805,0.1803,0.1806,0.1837,0.1843,0.1827,0.1871,0.1853,0.1857,0.1867,0.1873,0.1877,0.1897,0.1801,0,0,0,0,0,0.1615,0.1644,0.1669,0.1695,0.1714,0.1743,0.1769,0.178,0.1808,0.1822,0.1828,0.1838,0.1855,0.1868,0.1883,0.192,0.1935,0.193,0.1934,0.1938,0.1959,0.2009,0.202,0.1902,0.1902,0.1902,0,0,0.162,0.1641,0.1655,0.1698,0.1728,0.1757,0.1758,0.1806,0.1823,0.182,0.1848,0.1857,0.1868,0.1898,0.1913,0.1904,0.1974,0.1941,0.1944,0.1964,0.2013,0.2024,0.2035,0.1903,0.1903,0.1903,0,0,0.1648,0.1666,0.1695,0.1728,0.1772,0.1788,0.1803,0.1841,0.1855,0.1891,0.188,0.1905,0.1932,0.1942,0.195,0.1995,0.1994,0.1991,0.2034,0.2081,0.2092,0.2101,0.2111,0.2121,0.1996,0.1996,0.1996,0,0.1652,0.1679,0.1717,0.1751,0.1774,0.18,0.1828,0.1855,0.1893,0.1916,0.1901,0.1956,0.1954,0.2001,0.2006,0.2004,0.2024,0.2008,0.2088,0.2097,0.2107,0.2115,0.2126,0.1997,0.1997,0.1997,0.1997,0,0.1693,0.1715,0.1744,0.1782,0.1819,0.1857,0.1885,0.1918,0.1928,0.195,0.2004,0.2014,0.2056,0.2045,0.2038,0.21,0.2088,0.2084,0.2073,0.212,0.2125,0.2136,0.1999,0.1999,0.1998,0.1998,0,0,0.169,0.1756,0.1762,0.1782,0.1834,0.1871,0.191,0.196,0.1996,0.2029,0.2082,0.2105,0.213,0.2142,0.214,0.217,0.2225,0.2159,0.216,0.2166,0.2316,0.2259,0.2265,0.2242,0.2245,0.2247,0.2284,0,0.1704,0.176,0.1789,0.1836,0.1865,0.1905,0.1943,0.1995,0.2034,0.2092,0.2127,0.2175,0.2162,0.2185,0.2223,0.2226,0.2261,0.2215,0.2273,0.2275,0.2217,0.2279,0.2144,0.2164,0.2295,0.2297,0.2298,0,0.1718,0.1755,0.1803,0.1863,0.1881,0.1916,0.1993,0.2032,0.2119,0.2155,0.2229,0.2259,0.232,0.2295,0.2365,0.2341,0.2345,0.2339,0.234,0.2294,0.224,0.2145,0.2179,0.2316,0.2315,0.2314,0.2312,0,0.1693,0.1759,0.1797,0.182,0.1895,0.1933,0.1975,0.206,0.2095,0.2208,0.225,0.2341,0.238,0.2424,0.2413,0.241,0.2465,0.2456,0.241,0.2404,0.2306,0.2287,0.2522,0.2522,0.2522,0.2522,0.2522,0,0.168,0.1705,0.1796,0.1817,0.1861,0.1935,0.1992,0.2051,0.2142,0.2188,0.2291,0.2337,0.2419,0.2451,0.245,0.2457,0.2505,0.2439,0.2428,0.2306,0.2288,0.2435,0.2425,0.2523,0.2523,0.2523,0.2523,0,0.1614,0.1683,0.1722,0.1816,0.1847,0.1879,0.1964,0.2006,0.2116,0.218,0.2218,0.2345,0.2408,0.2446,0.2496,0.249,0.2497,0.248,0.231,0.228,0.2398,0.2389,0.2474,0.2473,0.2472,0.2471,0.247,0,0.1574,0.1595,0.1693,0.1716,0.1752,0.1816,0.1853,0.1968,0.2009,0.2163,0.2181,0.2295,0.2341,0.2404,0.2425,0.244,0.2459,0.2308,0.2289,0.2422,0.2403,0.2394,0.2387,0.2154,0.2151,0.2148,0.2146,0,0.1473,0.1521,0.1553,0.1608,0.1655,0.1699,0.1769,0.18,0.1937,0.2002,0.2095,0.2157,0.227,0.226,0.2296,0.2276,0.2303,0.2255,0.2459,0.2185,0.2123,0.2102,0.2105,0.2122,0.2124,0.2126,0.2127,0.2128,0.1384,0.1375,0.1436,0.1478,0.1531,0.1577,0.1592,0.1667,0.1723,0.1813,0.1932,0.199,0.209,0.21,0.2056,0.2051,0.2202,0.2131,0.2138,0.2149,0.2103,0.2043,0.2016,0.2018,0.2019,0.2021,0.2022,0,0.1259,0.1275,0.1301,0.1357,0.1377,0.1456,0.1524,0.1519,0.1548,0.1661,0.1727,0.1675,0.1723,0.1806,0.1799,0.1833,0.18,0.1748,0.1708,0.1736,0.1759,0.1691,0.1496,0.1494,0.1492,0.149,0,0,0.1191,0.1175,0.1199,0.1203,0.125,0.1266,0.1298,0.1295,0.1357,0.1364,0.142,0.1593,0.1751,0.158,0.1601,0.1548,0.1606,0.1486,0.1919,0.1898,0.1918,0.2008,0.1939,0,0,0,0,0]},{"header":{"parameterUnit":"m.s-1","parameterCategory":2,"la1":30.2991,"la2":30.254,"lo1":-89.0895,"lo2":-89.0444,"dy":0.0017,"dx":0.0017,"nx":28,"ny":28,"refTime":"2026-02-27T03:00:00:Z","depth":"2","parameterNumber":3,"parameterNumberName":"V-component_of_CURRENTS"},"data":[0,0,0,0,0,0,0,0,0,0,0,0,0,0,0,0,0,0,0,0,0,0,0,0,0,0,0,0,0,0,0,0,0,0,0,0,0,0,0,0,0,0,0,0,0,0,0,0,0,0,0,0,0,0,0,0,0,0,-0.0383,-0.0384,0,-0.0451,-0.0452,-0.0452,-0.0516,-0.0517,-0.0518,-0.0518,-0.0603,-0.0604,-0.0606,0,0,0,0,0,0,0,0,0,0,0,0,0,-0.0321,-0.0321,-0.0383,-0.0384,-0.0385,-0.0451,-0.0452,-0.0453,-0.0516,-0.0517,-0.0518,-0.0519,-0.0602,-0.0604,-0.0606,0,0,0,0,0,0,0,0,0,0,0,0,0,-0.0365,-0.0322,-0.0383,-0.0424,-0.0428,-0.045,-0.0452,-0.0453,-0.0516,-0.0517,-0.0518,-0.0519,-0.0602,-0.0604,-0.0606,-0.0599,0,0,-0.0614,-0.0615,0,0,0,0,0,0,0,0,-0.0362,-0.0367,-0.0417,-0.0421,-0.0426,-0.0475,-0.0461,-0.0502,-0.0515,-0.0483,-0.0518,-0.0519,-0.0561,-0.0566,-0.0577,-0.0603,-0.0607,-0.0614,-0.0615,-0.0616,-0.0617,0,0,0,0,0,0,0,-0.0359,-0.0364,-0.0411,-0.0418,-0.0423,-0.0442,-0.045,-0.0469,-0.0516,-0.0486,-0.0491,-0.0497,-0.0563,-0.0575,-0.058,-0.0608,-0.0614,-0.0616,-0.0617,-0.0618,-0.0641,-0.0641,0,0,0,0,0,0,-0.0347,-0.0361,-0.0409,-0.0413,-0.0395,-0.0443,-0.0451,-0.0459,-0.0515,-0.0525,-0.0496,-0.0499,-0.057,-0.0577,-0.0583,-0.0596,-0.0616,-0.0618,-0.062,-0.0642,-0.0641,-0.064,0,0,0,0,0,0,-0.0346,-0.0351,-0.0406,-0.0388,-0.0396,-0.0442,-0.0451,-0.046,-0.0475,-0.0522,-0.0532,-0.0502,-0.0572,-0.058,-0.0597,-0.0599,-0.062,-0.0622,-0.0643,-0.0642,-0.0641,-0.0609,0,0,0,0,0,0,-0.0344,-0.035,-0.0352,-0.0387,-0.0397,-0.041,-0.045,-0.046,-0.0476,-0.0482,-0.0531,-0.054,-0.0573,-0.0594,-0.06,-0.0602,-0.0624,-0.0644,-0.0642,-0.0641,-0.0611,-0.0607,-0.0603,0,0,0,0,0,-0.0341,-0.0332,-0.0352,-0.0357,-0.0398,-0.0409,-0.0415,-0.0453,-0.0475,-0.0472,-0.0509,-0.0539,-0.0589,-0.0595,-0.0602,-0.0606,-0.0645,-0.0643,-0.0641,-0.0613,-0.0608,-0.0603,0,0,0,0,0,0,-0.0305,-0.0339,-0.0361,-0.0364,-0.0383,-0.042,-0.042,-0.0446,-0.0472,-0.0479,-0.0529,-0.0539,-0.0557,-0.0576,-0.0582,-0.0605,-0.0621,-0.0621,-0.0597,-0.0592,-0.0588,-0.0588,-0.0625,0,0,0,0,0,-0.0297,-0.0301,-0.0335,-0.0336,-0.0343,-0.0381,-0.0391,-0.0414,-0.0442,-0.0456,-0.0489,-0.0522,-0.0553,-0.0568,-0.0592,-0.0601,-0.0633,-0.0606,-0.0602,-0.0599,-0.0601,-0.0656,-0.0658,-0.0634,-0.0634,-0.0634,0,0,-0.0283,-0.0302,-0.0305,-0.0329,-0.0348,-0.0354,-0.039,-0.0396,-0.0409,-0.0459,-0.0478,-0.0508,-0.0551,-0.0568,-0.0577,-0.0587,-0.0617,-0.0597,-0.0594,-0.0598,-0.0655,-0.0657,-0.066,-0.0633,-0.0633,-0.0634,0,0,-0.025,-0.0272,-0.0264,-0.0276,-0.0298,-0.0325,-0.0324,-0.0355,-0.0376,-0.0388,-0.0438,-0.0469,-0.0495,-0.0543,-0.0568,-0.0552,-0.0594,-0.055,-0.0535,-0.0588,-0.0591,-0.0594,-0.062,-0.0626,-0.055,-0.0549,-0.0549,0,-0.023,-0.0239,-0.0261,-0.0255,-0.0271,-0.0309,-0.0311,-0.033,-0.0363,-0.0381,-0.0384,-0.0453,-0.049,-0.0542,-0.0538,-0.0548,-0.057,-0.0553,-0.0585,-0.0589,-0.0593,-0.0619,-0.0626,-0.0548,-0.0548,-0.0548,-0.0548,0,-0.0199,-0.0206,-0.0197,-0.0217,-0.0228,-0.0232,-0.0266,-0.0277,-0.0303,-0.0331,-0.0368,-0.0416,-0.0459,-0.0476,-0.0504,-0.055,-0.0554,-0.0575,-0.0602,-0.0594,-0.0621,-0.0629,-0.0545,-0.0546,-0.0546,-0.0547,0,0,-0.0166,-0.0176,-0.0175,-0.0184,-0.0215,-0.0219,-0.0236,-0.0272,-0.0283,-0.0313,-0.0338,-0.0397,-0.042,-0.045,-0.0494,-0.0543,-0.0588,-0.0563,-0.0567,-0.0596,-0.0683,-0.064,-0.0645,-0.0616,-0.0617,-0.0619,-0.0686,0,-0.0146,-0.013,-0.0149,-0.0149,-0.0155,-0.0192,-0.0203,-0.0233,-0.0261,-0.0284,-0.0348,-0.0374,-0.0412,-0.0426,-0.0484,-0.0563,-0.0609,-0.0567,-0.068,-0.0683,-0.0653,-0.0653,-0.0618,-0.0671,-0.0693,-0.0695,-0.0696,0,-0.0132,-0.0124,-0.0115,-0.0132,-0.0136,-0.0135,-0.0171,-0.0181,-0.0225,-0.0241,-0.0285,-0.0324,-0.0399,-0.0424,-0.056,-0.0527,-0.0598,-0.0661,-0.0665,-0.0644,-0.0655,-0.0685,-0.0685,-0.0709,-0.0708,-0.0707,-0.0706,0,-0.0124,-0.0116,-0.0111,-0.0114,-0.0124,-0.0125,-0.0134,-0.0166,-0.0169,-0.0208,-0.0204,-0.0301,-0.0331,-0.0445,-0.0555,-0.056,-0.0698,-0.0724,-0.0756,-0.0753,-0.0755,-0.075,-0.0825,-0.0825,-0.0825,-0.0824,-0.0824,0,-0.0123,-0.0122,-0.0096,-0.0089,-0.0072,-0.0091,-0.0081,-0.0097,-0.0113,-0.0102,-0.0169,-0.0175,-0.0337,-0.0426,-0.0543,-0.0658,-0.0689,-0.0752,-0.0772,-0.0738,-0.073,-0.0793,-0.0788,-0.0827,-0.0826,-0.0826,-0.0826,0,-0.013,-0.012,-0.0101,-0.0077,-0.0067,-0.0048,-0.0029,-0.0017,-0.0029,-0.0016,-0.0019,-0.0091,-0.0188,-0.0345,-0.0527,-0.0621,-0.0752,-0.0789,-0.0718,-0.0727,-0.0776,-0.0769,-0.0835,-0.0834,-0.0833,-0.0833,-0.0832,0,-0.0139,-0.0124,-0.0069,-0.0036,-0.0021,0.0009,0.0033,0.0026,0.0047,0.0046,0.006,-0.0017,-0.005,-0.028,-0.0473,-0.0662,-0.0715,-0.075,-0.076,-0.0767,-0.078,-0.0774,-0.0768,-0.0751,-0.075,-0.0749,-0.0749,0,-0.0138,-0.0106,-0.0068,0.0003,0.0045,0.0086,0.0123,0.0153,0.0157,0.0188,0.0216,0.0195,0.0001,-0.0163,-0.0411,-0.0548,-0.0716,-0.0734,-0.0787,-0.0737,-0.069,-0.0701,-0.0699,-0.074,-0.0741,-0.0742,-0.0742,-0.0743,-0.0118,-0.0083,-0.0015,0.005,0.0105,0.0167,0.0215,0.0265,0.0324,0.0384,0.0339,0.0348,0.0124,-0.0146,-0.0376,-0.0615,-0.0632,-0.0721,-0.0724,-0.0729,-0.069,-0.0642,-0.0676,-0.0676,-0.0677,-0.0677,-0.0677,0,-0.0093,-0.0048,0.0022,0.0108,0.0182,0.0197,0.028,0.0335,0.0438,0.0494,0.0528,0.038,0.0194,-0.005,-0.0379,-0.0592,-0.0636,-0.0663,-0.0674,-0.068,-0.0686,-0.0646,-0.0621,-0.0621,-0.0621,-0.0621,0,0,-0.0074,-0.001,0.003,0.0158,0.0226,0.0325,0.0384,0.047,0.0537,0.0625,0.0658,0.0599,0.0305,0.0085,-0.0225,-0.041,-0.0498,-0.0454,-0.0479,-0.0463,-0.0466,-0.0701,-0.0643,0,0,0,0,0]}],[{"header":{"parameterUnit":"m.s-1","parameterCategory":2,"la1":30.2991,"la2":30.254,"lo1":-89.0895,"lo2":-89.0444,"dy":0.0017,"dx":0.0017,"nx":28,"ny":28,"refTime":"2026-02-27T03:00:00:Z","depth":"4","parameterNumber":2,"parameterNumberName":"U-component_of_CURRENTS"},"data":[0,0,0,0,0,0,0,0,0,0,0,0,0,0,0,0,0,0,0,0,0,0,0,0,0,0,0,0,0,0,0,0,0,0,0,0,0,0,0,0,0,0,0,0,0,0,0,0,0,0,0,0,0,0,0,0,0,0,0.0771,0.0772,0,0.0849,0.0849,0.085,0.0903,0.0904,0.0904,0.0905,0.0978,0.098,0.0981,0,0,0,0,0,0,0,0,0,0,0,0,0,0.07,0.07,0.0771,0.0772,0.0773,0.0848,0.0849,0.0851,0.0903,0.0904,0.0904,0.0905,0.0978,0.098,0.0982,0,0,0,0,0,0,0,0,0,0,0,0,0,0.0749,0.0701,0.0771,0.0808,0.0813,0.0848,0.085,0.0851,0.0903,0.0904,0.0904,0.0905,0.0977,0.098,0.0982,0.0984,0,0,0.0989,0.099,0,0,0,0,0,0,0,0,0.0746,0.0751,0.0802,0.0806,0.0811,0.0867,0.0852,0.0895,0.0903,0.0868,0.0905,0.0905,0.094,0.0946,0.0959,0.0988,0.0991,0.0989,0.0991,0.0992,0.0992,0,0,0,0,0,0,0,0.0742,0.0749,0.0801,0.0803,0.0808,0.0832,0.084,0.086,0.09,0.0872,0.0876,0.0884,0.0943,0.0956,0.0961,0.0992,0.0989,0.0991,0.0993,0.0994,0.1087,0.1088,0,0,0,0,0,0,0.0731,0.0745,0.0799,0.0804,0.0779,0.0833,0.0841,0.0848,0.09,0.0908,0.0884,0.0887,0.0952,0.0958,0.0964,0.1033,0.0992,0.0994,0.0995,0.1086,0.1087,0.1088,0,0,0,0,0,0,0.0729,0.0735,0.0796,0.0777,0.0786,0.0833,0.0841,0.0849,0.0893,0.0909,0.0918,0.0922,0.0953,0.096,0.1009,0.1034,0.0995,0.0997,0.1085,0.1086,0.1088,0.1131,0,0,0,0,0,0,0.0727,0.0734,0.0747,0.0776,0.0787,0.083,0.0841,0.085,0.0895,0.0901,0.0944,0.095,0.0954,0.1005,0.1011,0.1036,0.0999,0.1083,0.1085,0.1087,0.1128,0.1134,0.1138,0,0,0,0,0,0.0724,0.0738,0.0747,0.0755,0.0799,0.0831,0.0839,0.0874,0.0897,0.0916,0.0952,0.095,0.1021,0.1009,0.1015,0.1041,0.1082,0.1085,0.1087,0.1126,0.1133,0.1138,0,0,0,0,0,0,0.0715,0.0745,0.0756,0.078,0.0808,0.084,0.0866,0.0891,0.0936,0.095,0.0969,0.0977,0.1023,0.1029,0.1014,0.1073,0.1049,0.1053,0.1077,0.1083,0.1088,0.109,0.1001,0,0,0,0,0,0.0717,0.0738,0.0766,0.0787,0.0802,0.084,0.0864,0.0888,0.0924,0.0946,0.0977,0.1008,0.1033,0.1057,0.1074,0.1115,0.111,0.1134,0.1139,0.1143,0.1149,0.1159,0.1166,0.1096,0.1096,0.1096,0,0,0.0719,0.0739,0.0752,0.0787,0.0814,0.0846,0.0857,0.0898,0.0933,0.0945,0.101,0.1027,0.1047,0.1087,0.1109,0.1101,0.1162,0.1146,0.115,0.1153,0.1162,0.1169,0.1175,0.1098,0.1097,0.1097,0,0,0.073,0.0752,0.0774,0.0801,0.0844,0.0866,0.0884,0.093,0.0962,0.1013,0.1031,0.107,0.1113,0.1134,0.1148,0.1195,0.1184,0.12,0.1237,0.1247,0.1253,0.1258,0.1265,0.127,0.1209,0.1209,0.1209,0,0.0731,0.0763,0.0786,0.0816,0.0846,0.0879,0.0914,0.0947,0.1007,0.1033,0.1038,0.111,0.1133,0.1182,0.1204,0.1207,0.1208,0.1212,0.1254,0.1259,0.1263,0.1268,0.1274,0.1211,0.1211,0.1211,0.121,0,0.0758,0.0792,0.0809,0.0857,0.089,0.0926,0.0968,0.1009,0.1047,0.1076,0.1134,0.1162,0.1205,0.1218,0.1232,0.128,0.1268,0.1253,0.1237,0.1272,0.1276,0.1281,0.1215,0.1214,0.1213,0.1212,0,0,0.0738,0.0812,0.0823,0.0851,0.0918,0.0943,0.1003,0.1056,0.1095,0.1143,0.119,0.1245,0.1261,0.1278,0.1297,0.1317,0.1358,0.1309,0.1309,0.1314,0.1382,0.1346,0.1347,0.135,0.1351,0.1352,0.1373,0,0.0755,0.0813,0.0854,0.0915,0.0945,0.0996,0.1044,0.1098,0.1141,0.1191,0.1226,0.1274,0.1283,0.1311,0.1334,0.1354,0.1372,0.1354,0.1348,0.1348,0.131,0.1352,0.1355,0.1376,0.1377,0.1378,0.1378,0,0.0768,0.0807,0.0868,0.0939,0.0959,0.1005,0.1081,0.1132,0.1201,0.1233,0.1282,0.1306,0.1368,0.1354,0.1404,0.1393,0.1396,0.1399,0.1399,0.1354,0.1321,0.1332,0.1386,0.1386,0.1385,0.1385,0.1384,0,0.0732,0.0816,0.0865,0.0893,0.0977,0.1019,0.1074,0.1148,0.1189,0.1269,0.13,0.1355,0.1399,0.1408,0.1445,0.1424,0.148,0.1444,0.1408,0.1405,0.141,0.1404,0.1462,0.1462,0.1462,0.1462,0.1462,0,0.0722,0.0762,0.0857,0.088,0.0936,0.1013,0.1074,0.1131,0.1212,0.126,0.1326,0.1365,0.1417,0.1457,0.1458,0.1464,0.1493,0.1425,0.1413,0.1428,0.1424,0.1413,0.1407,0.1463,0.1462,0.1462,0.1462,0,0.0669,0.0735,0.0784,0.0883,0.0916,0.0959,0.1065,0.1105,0.1199,0.1264,0.1295,0.139,0.1454,0.1492,0.1526,0.1489,0.1489,0.1479,0.1513,0.1501,0.1396,0.1392,0.142,0.1419,0.1418,0.1418,0.1417,0,0.0646,0.0669,0.0766,0.0796,0.0845,0.0923,0.097,0.1079,0.1125,0.127,0.1291,0.1397,0.1451,0.1467,0.1514,0.1517,0.1501,0.1483,0.142,0.1408,0.1394,0.1391,0.1389,0.1416,0.1416,0.1415,0.1415,0,0.059,0.0631,0.0672,0.0735,0.0792,0.0846,0.0934,0.0958,0.1094,0.1179,0.1263,0.1316,0.1395,0.1433,0.1469,0.146,0.1482,0.1473,0.1473,0.1414,0.1403,0.1389,0.1388,0.1412,0.1413,0.1413,0.1413,0,0.0547,0.0558,0.0619,0.0671,0.0733,0.0776,0.0824,0.0905,0.0968,0.1135,0.1161,0.1285,0.1382,0.1406,0.1431,0.144,0.1402,0.1336,0.1342,0.1346,0.1317,0.1292,0.1266,0,0,0,0,0,0.0505,0.052,0.0556,0.0615,0.0673,0.0718,0.0806,0.0861,0.0987,0.1018,0.1092,0.1166,0.1243,0.1303,0.1295,0.139,0.1398,0.1375,0.1322,0.1396,0.14,0.1375,0,0,0,0,0,0,0.0478,0.0509,0.0533,0.0564,0.0598,0.0661,0.0716,0.0798,0.0824,0.0953,0.0996,0.1099,0.118,0.1237,0.1274,0.1292,0.1237,0.1451,0.1448,0.1394,0.1397,0.14,0.1375,0,0,0,0,0]},{"header":{"parameterUnit":"m.s-1","parameterCategory":2,"la1":30.2991,"la2":30.254,"lo1":-89.0895,"lo2":-89.0444,"dy":0.0017,"dx":0.0017,"nx":28,"ny":28,"refTime":"2026-02-27T03:00:00:Z","depth":"4","parameterNumber":3,"parameterNumberName":"V-component_of_CURRENTS"},"data":[0,0,0,0,0,0,0,0,0,0,0,0,0,0,0,0,0,0,0,0,0,0,0,0,0,0,0,0,0,0,0,0,0,0,0,0,0,0,0,0,0,0,0,0,0,0,0,0,0,0,0,0,0,0,0,0,0,0,0.0202,0.0202,0,0.016,0.0159,0.0159,0.0146,0.0147,0.0147,0.0147,0.0089,0.0087,0.0085,0,0,0,0,0,0,0,0,0,0,0,0,0,0.0201,0.0202,0.0202,0.0202,0.0201,0.016,0.0159,0.0158,0.0146,0.0147,0.0147,0.0147,0.009,0.0088,0.0085,0,0,0,0,0,0,0,0,0,0,0,0,0,0.0184,0.0202,0.0202,0.0191,0.019,0.016,0.0159,0.0158,0.0146,0.0147,0.0147,0.0148,0.009,0.0088,0.0085,0.0058,0,0,0.0076,0.0075,0,0,0,0,0,0,0,0,0.0185,0.0184,0.0193,0.0192,0.019,0.016,0.0137,0.0124,0.0146,0.0162,0.0147,0.0148,0.0112,0.0107,0.0097,0.0055,0.0052,0.0076,0.0075,0.0073,0.0073,0,0,0,0,0,0,0,0.0186,0.0185,0.0184,0.0193,0.0191,0.0164,0.0162,0.0134,0.0133,0.016,0.016,0.0156,0.0111,0.0099,0.0095,0.0051,0.0076,0.0074,0.0072,0.0071,-0.0042,-0.0043,0,0,0,0,0,0,0.0197,0.0187,0.0186,0.0183,0.019,0.0164,0.0162,0.0168,0.0134,0.0129,0.0156,0.0156,0.0104,0.0098,0.0093,0.004,0.0073,0.0071,0.0069,-0.0041,-0.0042,-0.0044,0,0,0,0,0,0,0.0197,0.0198,0.0187,0.0184,0.0181,0.0164,0.017,0.0167,0.0156,0.0131,0.0126,0.0149,0.0104,0.0097,0.0061,0.0038,0.0069,0.0067,-0.0039,-0.0041,-0.0043,-0.0055,0,0,0,0,0,0,0.0198,0.0198,0.0203,0.0185,0.0182,0.0169,0.017,0.0166,0.0154,0.0153,0.0123,0.0118,0.0104,0.0065,0.0058,0.0035,0.0065,-0.0037,-0.004,-0.0042,-0.0053,-0.0057,-0.0061,0,0,0,0,0,0.0198,0.0203,0.0204,0.0204,0.0191,0.0169,0.0164,0.0152,0.0153,0.0144,0.0121,0.0119,0.0044,0.0062,0.0054,0.0029,-0.0036,-0.0039,-0.0042,-0.0051,-0.0057,-0.0061,0,0,0,0,0,0,0.0206,0.0202,0.0203,0.0208,0.019,0.0167,0.0159,0.0151,0.0125,0.0125,0.0103,0.0096,0.0055,0.0042,0.0061,-0.0012,0.0003,-0.0002,-0.0002,-0.0007,-0.001,-0.002,0.0062,0,0,0,0,0,0.0211,0.0215,0.0201,0.0204,0.0197,0.0178,0.0167,0.0158,0.0135,0.0125,0.0102,0.0071,0.0035,0.0016,-0.0012,-0.0053,-0.007,-0.0075,-0.0079,-0.0082,-0.0097,-0.0146,-0.0156,-0.0053,-0.0053,-0.0053,0,0,0.0216,0.0213,0.0216,0.0205,0.0192,0.0171,0.0172,0.0157,0.0131,0.0121,0.0081,0.0059,0.0022,-0.0022,-0.0042,-0.0036,-0.0118,-0.0086,-0.0088,-0.0102,-0.015,-0.016,-0.0169,-0.0055,-0.0055,-0.0055,0,0,0.0212,0.0223,0.0217,0.0202,0.0184,0.0169,0.0165,0.0139,0.0123,0.0086,0.0065,0.0026,-0.0017,-0.0059,-0.0083,-0.0129,-0.0134,-0.0132,-0.0165,-0.0212,-0.022,-0.0228,-0.0246,-0.0256,-0.0137,-0.0137,-0.0137,0,0.0214,0.0205,0.0209,0.0191,0.0173,0.0167,0.0141,0.0122,0.0085,0.0063,0.0074,-0.0014,-0.0041,-0.0115,-0.0134,-0.014,-0.0154,-0.0139,-0.0216,-0.0225,-0.0233,-0.0249,-0.0259,-0.0138,-0.0138,-0.0138,-0.0138,0,0.0194,0.0186,0.018,0.0156,0.014,0.0118,0.0094,0.0074,0.006,0.0036,-0.0025,-0.0064,-0.0116,-0.0134,-0.015,-0.0227,-0.0212,-0.021,-0.02,-0.0244,-0.0258,-0.0269,-0.014,-0.0139,-0.0139,-0.0139,0,0,0.0183,0.0168,0.0162,0.0151,0.0117,0.0105,0.0064,0.0019,0.0002,-0.004,-0.0081,-0.0158,-0.0169,-0.02,-0.0225,-0.0274,-0.0338,-0.0268,-0.027,-0.0279,-0.0422,-0.0372,-0.0378,-0.0345,-0.0347,-0.0349,-0.0402,0,0.0154,0.0128,0.0118,0.0084,0.0065,0.0048,0.0018,-0.0016,-0.0041,-0.0075,-0.0132,-0.0172,-0.0197,-0.0213,-0.0274,-0.0317,-0.0369,-0.0322,-0.0386,-0.0388,-0.0333,-0.039,-0.0356,-0.041,-0.0413,-0.0414,-0.0416,0,0.0111,0.0107,0.0073,0.0058,0.0049,0.0029,-0.001,-0.0036,-0.0086,-0.0102,-0.016,-0.0186,-0.0275,-0.0272,-0.0394,-0.0359,-0.0403,-0.0434,-0.0437,-0.0398,-0.0358,-0.0365,-0.0435,-0.0433,-0.0432,-0.043,-0.0429,0,0.0088,0.0065,0.0042,0.0033,0.0018,-0.0,-0.0012,-0.0051,-0.0055,-0.0118,-0.0115,-0.0224,-0.0248,-0.0345,-0.0409,-0.0407,-0.0516,-0.0517,-0.0518,-0.0513,-0.0534,-0.0525,-0.0616,-0.0616,-0.0615,-0.0615,-0.0615,0,0.0049,0.0034,0.0039,0.0031,0.0029,0.0004,-0.0005,-0.0025,-0.005,-0.0044,-0.0123,-0.0133,-0.0267,-0.0331,-0.0415,-0.0489,-0.0525,-0.0542,-0.0538,-0.0534,-0.0525,-0.054,-0.053,-0.0617,-0.0617,-0.0616,-0.0616,0,0.0035,0.0021,0.0018,0.0017,0.002,0.0025,0.0039,0.0043,0.001,0.0016,0.0002,-0.0071,-0.0159,-0.0274,-0.0411,-0.0466,-0.0559,-0.0575,-0.0546,-0.0535,-0.0525,-0.0515,-0.0602,-0.0601,-0.06,-0.0599,-0.0598,0,0.0031,0.0023,0.0042,0.0061,0.0066,0.0077,0.0095,0.0075,0.0088,0.0067,0.0078,-0.0001,-0.0059,-0.0207,-0.0346,-0.0508,-0.0525,-0.057,-0.0586,-0.0543,-0.0531,-0.0522,-0.0514,-0.0597,-0.0597,-0.0597,-0.0596,0,0.0046,0.005,0.0067,0.0105,0.0128,0.0163,0.0181,0.0199,0.0183,0.0166,0.0152,0.0065,-0.0023,-0.0174,-0.0292,-0.0411,-0.0548,-0.0562,-0.0566,-0.0581,-0.0538,-0.0525,-0.0518,-0.0593,-0.0594,-0.0594,-0.0594,0,0.0075,0.0096,0.0114,0.0151,0.019,0.0225,0.0236,0.025,0.0255,0.023,0.023,0.0119,0.0042,-0.0121,-0.0232,-0.0344,-0.0382,-0.042,-0.0431,-0.0436,-0.0375,-0.0295,-0.0289,0,0,0,0,0,0.0095,0.011,0.0157,0.0187,0.0234,0.0246,0.0284,0.0288,0.0281,0.029,0.0259,0.0178,0.0016,-0.0063,-0.0167,-0.0235,-0.0414,-0.036,-0.0466,-0.0577,-0.058,-0.0532,0,0,0,0,0,0,0.01,0.0135,0.0156,0.0211,0.0238,0.0279,0.0303,0.0306,0.0304,0.0289,0.0204,0.0157,-0.0008,0.0074,-0.0169,-0.0205,-0.0283,-0.0444,-0.0446,-0.0575,-0.0578,-0.0581,-0.0533,0,0,0,0,0]}]]